CW5752 Weather Reports


time (UTC)temp
F
wind
direction
speed
knots
gust
knots
rain 1hr
in
rain 24hr
in
rain mn
in
humidity
%
barometer
mb
20260905222022 100 339 0.9 2.6 0.00 0.00 0.00 41 1010.0
20260905221042 101 343 0.9 3.5 0.00 0.00 0.00 40 1010.0
20260905220017 99 346 0.0 2.6 0.00 0.00 0.00 42 1010.1
20260905215038 100 344 0.9 4.3 0.00 0.00 0.00 43 1010.1
20260905214042 102 297 0.9 4.3 0.00 0.00 0.00 41 1010.1
20260905213021 100 292 1.7 5.2 0.00 0.00 0.00 41 1010.1
20260905212042 101 303 1.7 6.1 0.00 0.00 0.00 41 1010.2
20260905211022 101 320 1.7 7.8 0.00 0.00 0.00 42 1010.3
20260905210042 101 333 1.7 8.7 0.00 0.00 0.00 43 1010.5
20260905205017 101 4 0.0 2.6 0.00 0.00 0.00 41 1010.5
20260905204022 98 0.0 2.6 0.00 0.00 0.00 44 1010.5
20260905203022 101 306 1.7 5.2 0.00 0.00 0.00 39 1010.6
20260905202022 100 268 0.0 1.7 0.00 0.00 0.00 44 1010.8
20260905201022 100 268 0.0 2.6 0.00 0.00 0.00 41 1010.9
20260905200021 99 267 0.0 7.0 0.00 0.00 0.00 46 1011.0
20260905195022 100 319 0.0 4.3 0.00 0.00 0.00 46 1011.0
20260905194016 99 289 0.0 4.3 0.00 0.00 0.00 45 1011.2
20260905193042 98 278 0.9 6.1 0.00 0.00 0.00 45 1011.3
20260905192022 98 277 1.7 7.8 0.00 0.00 0.00 44 1011.4
20260905191022 100 282 4.3 9.6 0.00 0.00 0.00 43 1011.5
20260905190042 99 312 0.0 7.8 0.00 0.00 0.00 43 1011.6
20260905185021 99 297 0.9 7.0 0.00 0.00 0.00 43 1011.7
20260905184017 100 327 0.0 5.2 0.00 0.00 0.00 47 1011.8
20260905183016 100 318 0.9 6.1 0.00 0.00 0.00 42 1012.0
20260905182022 99 331 0.9 4.3 0.00 0.00 0.00 44 1012.1
20260905181022 100 280 0.9 5.2 0.00 0.00 0.00 47 1012.2
20260905180021 99 272 3.5 7.0 0.00 0.00 0.00 43 1012.4
20260905175042 99 273 1.7 6.1 0.00 0.00 0.00 45 1012.4
20260905174022 99 282 1.7 7.8 0.00 0.00 0.00 45 1012.5
20260905173017 98 275 1.7 8.7 0.00 0.00 0.00 43 1012.6
20260905172022 98 278 2.6 7.8 0.00 0.00 0.00 45 1012.7
20260905171022 98 291 1.7 5.2 0.00 0.00 0.00 45 1012.7
20260905170021 97 277 2.6 9.6 0.00 0.00 0.00 47 1012.8
20260905165022 97 286 0.9 9.6 0.00 0.00 0.00 49 1013.1
20260905164022 96 280 3.5 8.7 0.00 0.00 0.00 47 1013.2
20260905163102 96 273 3.5 8.7 0.00 0.00 0.00 49 1013.4
20260905162016 95 276 3.5 9.6 0.00 0.00 0.00 49 1013.6
20260905161022 95 280 1.7 7.8 0.00 0.00 0.00 52 1013.7
20260905160021 94 280 0.9 4.3 0.00 0.00 0.00 54 1013.8
20260905155022 94 272 1.7 7.0 0.00 0.00 0.00 56 1013.8
20260905154104 93 276 3.5 9.6 0.00 0.00 0.00 56 1013.9
20260905153022 93 280 1.7 8.7 0.00 0.00 0.00 55 1013.9
20260905152016 92 279 2.6 7.8 0.00 0.00 0.00 56 1013.9
20260905151016 92 270 0.9 6.1 0.00 0.00 0.00 60 1013.8
20260905150041 91 256 0.9 5.2 0.00 0.00 0.00 59 1013.8
20260905145021 90 267 0.0 5.2 0.00 0.00 0.00 63 1013.7
20260905144021 90 244 1.7 4.3 0.00 0.00 0.00 63 1013.8
20260905143039 89 211 0.0 2.6 0.00 0.00 0.00 63 1013.9
20260905142021 88 211 0.9 1.7 0.00 0.00 0.00 67 1013.9
20260905141016 87 210 0.0 2.6 0.00 0.00 0.00 69 1013.9
20260905140021 86 211 0.0 1.7 0.00 0.00 0.00 73 1014.0
20260905135022 84 0.0 1.7 0.00 0.00 0.00 76 1014.0
20260905134021 83 211 0.0 1.7 0.00 0.00 0.00 79 1014.1
20260905133021 81 211 0.0 1.7 0.00 0.00 0.00 83 1014.1
20260905132022 80 0.0 1.7 0.00 0.00 0.00 85 1014.1
20260905131017 79 0.0 0.0 0.00 0.00 0.00 88 1014.0
20260905130016 78 0.0 0.0 0.00 0.00 0.00 89 1014.0
20260905125021 76 0.0 0.0 0.00 0.00 0.00 92 1013.9
20260905124041 75 0.0 0.0 0.00 0.00 0.00 92 1013.8
20260905123021 74 0.0 0.0 0.00 0.00 0.00 93 1013.7
20260905122042 73 0.0 0.0 0.00 0.00 0.00 93 1013.6
20260905121042 73 0.0 0.0 0.00 0.00 0.00 93 1013.5
20260905120016 73 0.0 0.0 0.00 0.00 0.00 92 1013.6
20260905115021 74 0.0 0.0 0.00 0.00 0.00 93 1013.5
20260905114022 74 0.0 0.0 0.00 0.00 0.00 93 1013.5
20260905113021 74 0.0 0.0 0.00 0.00 0.00 93 1013.4
20260905112022 74 0.0 0.0 0.00 0.00 0.00 93 1013.5
20260905111021 73 0.0 0.0 0.00 0.00 0.00 93 1013.4
20260905110022 73 0.0 0.0 0.00 0.00 0.00 93 1013.3
20260905105016 73 0.0 0.0 0.00 0.00 0.00 93 1013.1
20260905104021 73 0.0 0.0 0.00 0.00 0.00 93 1013.1
20260905103021 74 0.0 0.0 0.00 0.00 0.00 93 1013.1
20260905102022 74 0.0 0.0 0.00 0.00 0.00 93 1013.1
20260905101021 74 0.0 0.0 0.00 0.00 0.00 92 1013.0
20260905100022 74 0.0 0.0 0.00 0.00 0.00 92 1013.1
20260905095016 74 0.0 0.0 0.00 0.00 0.00 92 1013.0
20260905094021 74 0.0 0.0 0.00 0.00 0.00 92 1013.1
20260905093023 75 0.0 0.0 0.00 0.00 0.00 92 1013.1
20260905092021 74 0.0 0.0 0.00 0.00 0.00 92 1013.0
20260905091021 74 0.0 0.0 0.00 0.00 0.00 92 1013.1
20260905090042 74 0.0 0.0 0.00 0.00 0.00 90 1013.0
20260905085022 75 0.0 0.0 0.00 0.00 0.00 91 1013.0
20260905084016 75 0.0 0.0 0.00 0.00 0.00 91 1012.9
20260905083021 75 0.0 0.0 0.00 0.00 0.00 91 1012.9
20260905082022 75 0.0 0.0 0.00 0.00 0.00 91 1013.0
20260905081021 75 0.0 0.0 0.00 0.00 0.00 90 1013.1
20260905080021 76 0.0 0.0 0.00 0.00 0.00 91 1013.2
20260905075021 75 0.0 0.0 0.00 0.00 0.00 91 1013.1
20260905074016 75 0.0 0.0 0.00 0.00 0.00 90 1013.0
20260905073036 76 0.0 0.0 0.00 0.00 0.00 90 1013.0
20260905072021 76 0.0 0.0 0.00 0.00 0.00 90 1013.1
20260905071021 76 0.0 0.0 0.00 0.00 0.00 89 1013.1
20260905070021 76 0.0 0.0 0.00 0.00 0.00 90 1013.1
20260905065021 75 0.0 0.0 0.00 0.00 0.00 89 1013.2
20260905064041 76 0.0 0.0 0.00 0.00 0.00 89 1013.1
20260905063057 76 0.0 0.0 0.00 0.00 0.00 89 1013.2
20260905062021 76 0.0 0.0 0.00 0.00 0.00 89 1013.2
20260905061021 76 0.0 0.0 0.00 0.00 0.00 88 1013.2
20260905060041 76 0.0 0.0 0.00 0.00 0.00 87 1013.3
20260905055042 77 0.0 0.0 0.00 0.00 0.00 88 1013.4
20260905054022 77 0.0 0.0 0.00 0.00 0.00 88 1013.4
20260905053036 76 0.0 0.0 0.00 0.00 0.00 87 1013.4
20260905052016 77 0.0 0.0 0.00 0.00 0.00 87 1013.5
20260905051021 77 0.0 0.0 0.00 0.00 0.00 87 1013.5
20260905050022 77 0.0 0.0 0.00 0.00 0.00 85 1013.4
20260905045042 78 0.0 0.0 0.00 0.00 0.00 85 1013.5
20260905044022 78 0.0 0.0 0.00 0.00 0.00 86 1013.5
20260905043022 79 0.0 0.0 0.00 0.00 0.00 83 1013.4
20260905042023 80 0.0 0.0 0.00 0.00 0.00 81 1013.2
20260905041022 79 0.0 0.0 0.00 0.00 0.00 84 1013.3
20260905040017 79 0.0 0.0 0.00 0.00 0.00 84 1013.3
20260905035022 80 0.0 0.0 0.00 0.00 0.00 83 1013.3
20260905034102 80 0.0 0.0 0.00 0.00 0.00 82 1013.4
20260905033042 80 0.0 0.0 0.00 0.00 0.00 82 1013.5
20260905032022 80 0.0 0.0 0.00 0.00 0.00 82 1013.6
20260905031042 80 0.0 0.0 0.00 0.00 0.00 81 1013.6
20260905030022 80 0.0 0.0 0.00 0.00 0.00 80 1013.6
20260905025017 81 0.0 0.0 0.00 0.00 0.00 78 1013.6
20260905024022 81 0.0 0.0 0.00 0.00 0.00 78 1013.5
20260905023022 82 0.0 0.0 0.00 0.00 0.00 78 1013.4
20260905022022 84 0.0 0.0 0.00 0.00 0.00 73 1013.3
20260905021022 84 0.0 0.0 0.00 0.00 0.00 74 1013.3
20260905020022 85 0.0 0.0 0.00 0.00 0.00 72 1013.2
20260905015017 84 0.0 0.0 0.00 0.00 0.00 75 1013.0
20260905014022 84 0.0 0.0 0.00 0.00 0.00 73 1012.9
20260905013022 85 0.0 0.0 0.00 0.00 0.00 72 1012.7
20260905012022 85 0.0 0.0 0.00 0.00 0.00 72 1012.6
20260905011022 86 0.0 0.0 0.00 0.00 0.00 70 1012.4
20260905010022 85 0.0 0.0 0.00 0.00 0.00 71 1012.2
20260905005022 86 0.0 1.7 0.00 0.00 0.00 70 1012.2
20260905004017 87 0.0 0.0 0.00 0.00 0.00 70 1012.0
20260905003022 87 0.0 0.0 0.00 0.00 0.00 66 1012.0
20260905002025 88 0.0 1.7 0.00 0.00 0.00 65 1012.0
20260905001022 89 0.0 0.0 0.00 0.00 0.00 61 1012.0
20260905000042 92 0.0 0.0 0.00 0.00 0.00 58 1012.1
20260904235022 93 0.0 0.0 0.00 0.00 0.00 54 1012.1
20260904234017 94 203 0.0 1.7 0.00 0.00 0.00 52 1012.1
20260904233037 94 204 0.0 1.7 0.00 0.00 0.00 52 1012.1
20260904232023 95 203 0.0 2.6 0.00 0.00 0.00 54 1012.0
20260904231022 96 204 0.0 2.6 0.00 0.00 0.00 49 1012.0
20260904230022 98 204 0.0 2.6 0.00 0.00 0.00 45 1012.1
20260904225022 98 204 0.0 1.7 0.00 0.00 0.00 45 1012.0
20260904224022 98 204 0.0 1.7 0.00 0.00 0.00 46 1011.9
20260904223017 98 204 0.0 3.5 0.00 0.00 0.00 46 1011.9